www.pogodaiklimat.ru

АРХИВ ПОГОДЫ в Нью-Йорке Сити

Время (UTC), дата Ветер
(напр.,м/с)
 
Видим.   Явления Облачность Т
(С)
Тd
(С)
f
(%)
Тe
(С)
Тes
(С)
Комфортность

P
(гПа)

Po
(гПа)
Тmin
(С)
Tmax
(С)
R
(мм)
SD
(см)
00:32 27.09 З  3 км    10/10 м
[средняя] 
0.0  0.0  100  -5  -5    1012.7  1007.5  +20.0  +25.6  2.0   
01:51 27.09 нст  10 км    10/10 м
[средняя] 
0.0  0.0  100  -3  -3    1013.3  1008.5  +20.0  +25.6  2.0   
02:51 27.09 нст  16 км    10/10 м
[средняя] 
0.0  0.0  100  -3  -3    1013.9  1009.1  +20.0  +25.6  2.0   
03:51 27.09 нст  16 км    10/10 м
[средняя] 
0.0  0.0  100  -5  -5    1015.0  1010.1  +20.0  +25.6  2.0   
04:18 27.09 нст  16 км    10/10 м
[средняя] 
0.0  0.0  100  -3  -3    1015.7  1010.8  +20.0  +25.6  2.0   
05:43 27.09 нст  16 км    10/10 м
[средняя] 
0.0  0.0  100  -5  -5    1016.3  1011.5  +16.1  +20.0     
06:15 27.09 нст  16 км    10/10 м  0.0  0.0  100  -5  -5    1016.7  1011.5  +16.1  +20.0     
07:22 27.09 нст  16 км    5/5 м  0.0  0.0  100  -5  -5    1017.6  1012.5  +16.1  +20.0     
08:51 27.09 С  16 км    ясно  0.0  0.0  100  -6  -6    1018.3  1013.5  +16.1  +20.0     
09:51 27.09 нст  16 км    ясно  0.0  0.0  100  -5  -5    1019.2  1014.5  +16.1  +20.0     
10:51 27.09 С  16 км    ясно  0.0  0.0  100  -5  -5    1020.1  1015.2  +16.1  +20.0     
11:51 27.09 нст  16 км    ясно  0.0  0.0  100  -5  -4    1020.7  1015.9  +16.1  +22.2     
13:51 27.09 С  16 км    ясно  0.0  0.0  100  -6  -4    1020.7  1015.9  +16.1  +22.2     
14:51 27.09 нст  10 км    ясно  0.0  0.0  100  -5  -1    1020.2  1015.5  +16.1  +22.2     
15:51 27.09 нст  10 км    ясно  0.0  0.0  100  -5  0    1019.6  1014.9  +16.1  +22.2     
16:51 27.09 штиль  16 км    ясно  0.0  0.0  100  -1  +6    1019.4  1014.5  +16.1  +22.2     
17:51 27.09 СВ  16 км    ясно  0.0  0.0  100  -5  -2    1019.2  1014.5  +19.4  +21.7     
18:51 27.09 СВ  16 км    8/8 м  0.0  0.0  100  -5  -3    1018.8  1013.9  +19.4  +21.7     
19:51 27.09 СВ  16 км    ясно  0.0  0.0  100  -5  -2    1018.5  1013.5  +19.4  +21.7     
20:51 27.09 нст  16 км    10/10 м
[средняя] 
0.0  0.0  100  -3  -3    1018.8  1013.9  +19.4  +21.7     
21:14 27.09 СВ  16 км    10/10 м
[средняя] 
0.0  0.0  100  -5  -5    1019.0  1014.2  +19.4  +21.7     
22:23 27.09 нст  16 км    10/10 м
[средняя] 
0.0  0.0  100  -5  -5    1019.0  1014.2  +19.4  +21.7     
23:51 27.09 штиль  16 км    10/10 м
[средняя] 
0.0  0.0  100  -1  -1    1019.5  1014.5  +17.8  +20.0     
00:51 28.09 нст  16 км    10/10 м
[средняя] 
0.0  0.0  100  -3  -3    1018.5  1013.5  +17.8  +20.0     
01:51 28.09 штиль  16 км    10/10 м  0.0  0.0  100  -1  -1    1018.6  1013.9  +17.8  +20.0     
02:51 28.09 нст  16 км    10/10 м  0.0  0.0  100  -5  -5    1019.0  1014.2  +17.8  +20.0     
03:51 28.09 нст  16 км    10/10 м  0.0  0.0  100  -5  -5    1017.3  1012.5  +17.8  +20.0     
04:51 28.09 нст  16 км    10/10 м  0.0  0.0  100  -5  -5    1016.6  1011.8  +17.8  +20.0     
05:51 28.09 В  16 км    10/10 м  0.0  0.0  100  -6  -6    1015.5  1010.8  +15.0  +17.8  7.4   
06:11 28.09 нст  16 км    10/10 м  0.0  0.0  100  -5  -5    1014.5  1010.1  +15.0  +17.8  7.4   
07:41 28.09 СВ  4 км    10/10 м  0.0  0.0  100  -5  -5    1015.2  1010.1  +15.0  +17.8  7.4   
08:14 28.09 СВ  3 км    10/10 м  0.0  0.0  100  -5  -5    1014.2  1009.8  +15.0  +17.8  19.1   
09:51 28.09 СВ  4
{9} 
8 км    10/10 м  0.0  0.0  100  -6  -6    1013.9  1009.1  +15.0  +17.8  19.1   
10:51 28.09 СВ  4 км  дымка  10/10 м  0.0  0.0  100  -6  -6    1015.3  1010.5  +15.0  +17.8  19.1   
11:11 28.09 СВ  4
{8} 
6 км  дымка  10/10 м  0.0  0.0  100  -6  -6    1015.9  1010.5  +13.3  +15.0  0.5   
12:16 28.09 С  4
{8} 
16 км  дымка  10/10 м  0.0  0.0  100  -6  -6    1016.7  1011.2  +13.3  +15.0  0.5   
13:51 28.09 нст  16 км  дымка  10/10 м  0.0  0.0  100  -5  -5    1017.1  1012.2  +13.3  +15.0  0.5   
14:51 28.09 С  8 км  дымка  10/10 м  0.0  0.0  100  -6  -6    1017.9  1013.2  +13.3  +15.0  0.5   
15:14 28.09 нст  4 км    10/10 м  0.0  0.0  100  -5  -5    1018.0  1013.2  +13.3  +15.0  0.5   
16:24 28.09 нст  16 км    10/10 м  0.0  0.0  100  -5  -5    1018.1  1013.5  +13.3  +15.0  0.5   
17:21 28.09 СВ  16 км    10/10 м  0.0  0.0  100  -5  -5    1017.8  1012.8  +14.4  +17.2  11.2   
18:36 28.09 штиль  16 км    10/10 м  0.0  0.0  100  -1  -1    1017.9  1013.2  +14.4  +17.2  11.2   
19:51 28.09 штиль  16 км    10/10 м  0.0  0.0  100  -1  -1    1018.4  1013.5  +14.4  +17.2  11.2   
20:51 28.09 нст  16 км    10/10 м  0.0  0.0  100  -3  -3    1018.7  1013.9  +14.4  +17.2  11.2   
21:39 28.09 нст  16 км    2/2 м  0.0  0.0  100  -3  -3    1019.1  1014.2  +14.4  +17.2  11.2   
22:51 28.09 штиль  16 км    ясно  0.0  0.0  100  -1  -1    1019.3  1014.5  +14.4  +17.2  11.2   
23:51 28.09 штиль  16 км    ясно  0.0  0.0  100  -1  -1    1019.7  1014.9  +15.0  +16.1  11.2   
00:51 29.09 З  16 км    ясно  0.0  0.0  100  -3  -3    1019.9  1015.2  +15.0  +16.1  11.2   

 

Местоположение метеостанции Central Park: широта 40.7833 долгота -73.9667 высота над уровнем моря 47 м.

В архиве по умолчанию представлена погода в Нью-Йорке Сити за последние 1-2 суток. Обновление информации о фактической погоде в базе происходит ежечасно! Архивные данные за месяц целиком и за предыдущие месяцы Вы можете получить, выбрав интересующий диапазон дат из раскрывающегося списка и нажав кнопку "Ввод!".

Внимание! Архив погоды МЕТАР в базе сайта в настоящее время начинается c 1 января 2013 г. Нет смысла пытаться выбрать более раннюю дату.

Внимание! Время в таблицах - всемирное. Для получения местного времени необходимо прибавить поправку, которая в Нью-Йорке Сити равна -5 ч.

Ветер - указаны скорость ветра в м/с и направление, откуда дует ветер: С - северный, СВ - северо-восточный, В - восточный, ЮВ - юго-восточный, Ю - южный, ЮЗ - юго-западный, З - западный, СЗ - северо-западный.
Видимость - горизонтальная дальность видимости в метрах или километрах. При видимости от 1 до 10 км при отсутствии осадков обычно наблюдается дымка, при ухудшении видимости до 1 км и менее - туман. В сухую погоду видимость может ухудшаться дымом, пылью или мглою.
Атмосферные явления - указаны явления, наблюдавшиеся в указанный момент времени.
Облачность - указаны через наклонную черту верхняя и нижняя облачность в баллах и высота нижней границы облаков в метрах. Внимание: облачность, как и прочие метеорологические величины в США измеряются автоматическими метеостанциями. Указанные значения в баллах носят условный характер и показывают процент времени, в течение которого, в среднем, лазерный луч высотомера отражался от облаков обратно.
T - Температура воздуха - температура, измеренная на высоте 2 м над землей.
Td - Температура точки росы - температура, при понижении до которой содержащийся в воздухе водяной пар достигнет насыщения.
f - Относительная влажность воздуха - влажноcть воздуха, измеренная на высоте 2 м над землей.
Te - Эффективная температура - температура, которую ощущает одетый по сезону человек в тени. Характеристика душности погоды. При расчете учитывается влияние влажности воздуха и скорости ветра на теплоощущения человека.
Tes - Эффективная температура на солнце - температура, которую ощущает человек, с поправкой на солнечный нагрев. Характеристика знойности погоды. Зависит от высоты солнца над горизонтом, облачности и скорости ветра. Ночью, в пасмурную погоду, а также при ветре 12 м/с и более поправка равна нулю.
P - Атмосферное давление - приведенное к уровню моря атмосферное давление.
Po - Атмосферное давление - измеренное на уровне метеостанции атмосферное давление.
Tmin - Минимальная температура - минимум температуры воздуха на высоте 2 м над землей.
Tmax - Максимальная температура - максимум температуры воздуха на высоте 2 м над землей.
R - Количество осадков - Количество выпавших осадков за 3 или 6 часов, мм.
SD - Снежный покров - Высота снежного покрова, см.